DW4513 Weather Reports


time (UTC)temp
F
wind
direction
speed
knots
gust
knots
rain 1hr
in
rain 24hr
in
rain mn
in
humidity
%
barometer
mb
20260505100027 40 132 0.0 0.0 0.00 0.02 0.00 93 1008.9
20260505094521 41 132 0.0 0.9 0.00 0.02 0.00 93 1008.7
20260505093018 40 132 0.0 3.5 0.00 0.02 0.00 93 1008.6
20260505091525 40 130 0.0 1.7 0.00 0.02 0.00 93 1008.7
20260505090034 40 130 0.0 1.7 0.00 0.02 0.00 93 1008.7
20260505084515 39 138 0.0 0.0 0.00 0.02 0.00 93 1008.6
20260505083015 39 138 0.0 0.0 0.00 0.02 0.00 93 1008.6
20260505081514 39 138 0.0 0.0 0.00 0.02 0.00 93 1008.5
20260505080010 38 138 0.0 0.0 0.00 0.02 0.00 92 1008.3
20260505074505 39 138 0.0 0.0 0.00 0.02 0.00 92 1008.2
20260505073004 39 138 0.0 0.0 0.00 0.02 0.00 92 1008.3
20260505071506 38 138 0.0 0.0 0.00 0.02 0.00 92 1008.3
20260505070104 39 138 0.0 0.0 0.00 0.02 0.00 92 1008.2
20260505064559 39 138 0.0 0.0 0.00 0.02 0.00 92 1008.1
20260505063059 39 138 0.0 1.7 0.00 0.02 0.00 91 1008.0
20260505061559 39 138 0.0 0.0 0.00 0.02 0.00 91 1008.0
20260505060059 40 138 0.0 1.7 0.00 0.02 0.00 92 1007.9
20260505054625 39 138 0.0 1.7 0.00 0.02 0.00 91 1008.0
20260505053104 39 137 0.0 0.0 0.00 0.02 0.00 91 1007.8
20260505051551 39 137 0.0 0.0 0.00 0.02 0.00 90 1007.7
20260505041554 41 137 0.0 0.0 0.00 0.02 0.00 90 1007.7
20260505040042 41 137 0.0 0.0 0.00 0.02 0.00 89 1007.8
20260505034541 42 137 0.0 0.0 0.00 0.02 0.02 89 1007.6
20260505033042 42 137 0.0 0.9 0.00 0.02 0.02 89 1007.6
20260505031551 42 136 0.0 0.0 0.00 0.02 0.02 88 1007.7
20260505030040 43 136 0.0 0.0 0.00 0.02 0.02 87 1007.7
20260505024541 43 136 0.0 0.0 0.00 0.02 0.02 86 1007.8
20260505023039 44 136 0.0 0.0 0.00 0.02 0.02 86 1007.9
20260505021538 45 136 0.0 3.5 0.00 0.02 0.02 85 1007.8
20260505020037 45 135 0.0 3.5 0.00 0.02 0.02 85 1007.7
20260505014538 45 134 0.0 4.3 0.00 0.02 0.02 85 1007.7
20260505013036 45 119 0.0 4.3 0.00 0.02 0.02 84 1007.6
20260505011536 46 137 0.9 3.5 0.00 0.02 0.02 84 1007.4
20260505010034 46 143 0.0 5.2 0.00 0.02 0.02 83 1007.3
20260505004545 46 143 0.9 4.3 0.00 0.02 0.02 82 1007.1
20260505003034 47 171 0.9 5.2 0.00 0.02 0.02 81 1006.9
20260505001533 48 146 0.9 7.0 0.00 0.02 0.02 79 1006.7
20260505000049 49 157 0.9 4.3 0.00 0.02 0.02 76 1006.5
20260504234532 50 172 0.0 4.3 0.00 0.02 0.02 75 1006.1
20260504233032 51 159 0.0 4.3 0.00 0.02 0.02 74 1005.8
20260504231531 52 142 0.9 7.0 0.00 0.02 0.02 73 1005.8
20260504230030 53 171 0.9 4.3 0.00 0.02 0.02 70 1005.7
20260504224529 55 182 0.0 3.5 0.00 0.02 0.02 68 1005.4
20260504223029 57 182 0.0 4.3 0.00 0.02 0.02 65 1005.1
20260504221528 59 179 1.7 4.3 0.00 0.02 0.02 61 1005.3
20260504220028 61 281 2.6 12.2 0.00 0.02 0.02 56 1005.1
20260504214528 62 218 1.7 5.2 0.00 0.02 0.02 56 1004.9
20260504213026 62 250 0.9 7.0 0.00 0.02 0.02 59 1004.9
20260504211525 62 251 1.7 7.0 0.00 0.02 0.02 59 1005.0
20260504210024 61 217 0.9 8.7 0.00 0.02 0.02 60 1004.9
20260504204525 62 272 4.3 9.6 0.00 0.02 0.02 57 1004.8
20260504203027 61 10 2.6 10.4 0.00 0.02 0.02 59 1004.8
20260504201519 60 265 2.6 7.8 0.00 0.02 0.02 59 1004.8
20260504200019 59 211 1.7 7.0 0.00 0.02 0.02 63 1004.9
20260504194517 60 231 0.9 8.7 0.00 0.03 0.02 66 1004.8
20260504193013 58 161 1.7 6.1 0.00 0.03 0.02 71 1004.9
20260504191509 54 229 1.7 6.1 0.01 0.03 0.02 77 1005.2
20260504190009 53 248 3.5 7.8 0.02 0.03 0.02 76 1005.4
20260504184508 52 194 0.9 6.1 0.02 0.06 0.02 78 1005.7
20260504183007 53 257 2.6 7.8 0.02 0.06 0.02 76 1005.9
20260504181507 54 213 1.7 7.0 0.01 0.05 0.01 71 1005.9
20260504180009 55 242 3.5 7.8 0.00 0.11 0.00 67 1005.7
20260504174506 53 257 0.9 5.2 0.00 0.11 0.00 72 1005.5
20260504173005 49 203 0.0 7.8 0.00 0.11 0.00 77 1005.5
20260504171505 51 153 4.3 8.7 0.00 0.11 0.00 73 1005.2